GFSGL_con_mucape_000.txt.gz
CAPE
0 0 0 0 0 0 0 0 0 26 33 25 9 33 53 61 54 86 62 59 79 52 15 7 0 0 0 0 0 1 4 0 0 0 0 0 0 0 0 0 0 0 0
0 0 0 0 0 0 0 0 0 0 6 36 39 6 4 0 0 14 3 0 0 1 2 1 0 0 8 3 0 0 0 0 0 0 0 0 0 0 0 0 0 0 0
0 0 0 0 0 0 0 0 0 0 0 2 0 0 0 0 0 0 8 0 0 0 0 0 0 0 0 0 0 0 0 0 0 0 0 0 0 0 0 0 0 0 0
0 0 0 0 0 0 0 0 0 0 0 0 0 0 0 0 0 0 0 0 0 0 0 0 0 0 0 0 0 0 0 0 0 0 0 0 0 0 0 0 0 0 0
0 0 0 0 0 0 0 0 0 0 0 0 0 0 0 0 0 0 0 0 0 0 0 0 0 0 0 0 0 0 0 0 0 0 0 0 0 0 0 0 0 0 0
0 0 0 0 0 0 0 0 0 0 0 0 0 0 0 0 0 0 0 0 0 0 0 0 0 0 0 0 0 0 0 0 0 0 0 0 0 0 0 0 0 0 0
0 0 0 0 0 0 0 0 0 0 0 0 0 0 0 0 0 0 0 0 0 0 0 0 0 0 0 0 0 0 0 0 0 0 0 0 0 0 0 0 0 0 0
0 0 0 0 0 0 0 0 0 0 0 0 0 0 0 0 0 0 0 0 0 0 0 0 0 0 0 0 0 0 0 0 0 0 0 0 0 0 0 0 0 0 0
0 0 0 0 0 0 0 0 0 0 0 0 0 0 0 0 0 0 0 0 0 0 0 0 0 0 0 0 0 0 0 0 0 0 0 0 0 0 0 0 0 0 0
0 0 0 0 0 0 0 0 0 0 0 0 0 0 0 0 0 0 0 0 0 0 0 0 0 0 0 0 0 0 0 0 0 0 0 0 0 0 0 0 0 0 0
0 0 0 0 0 0 0 0 0 0 0 0 0 0 0 0 0 0 0 0 0 0 0 0 0 0 0 0 0 0 0 0 0 0 0 0 0 0 0 0 0 0 0
0 0 0 0 0 0 0 0 0 0 0 0 0 0 0 0 0 0 0 0 0 0 0 0 0 0 0 0 0 0 0 0 0 0 0 0 3 0 0 0 0 0 0
0 0 0 0 0 0 0 0 0 0 0 0 0 0 0 0 0 0 0 0 0 0 0 6 4 0 0 0 0 0 0 0 0 12 28 36 21 4 0 0 0 0 0
0 0 0 0 0 0 0 0 0 0 0 0 0 0 0 0 0 0 0 0 0 1 3 3 1 8 22 23 35 32 19 17 21 11 10 12 10 3 6 0 0 3 3
0 0 0 0 0 0 0 0 0 0 0 0 0 0 0 0 0 1 7 20 33 28 16 12 27 41 61 117 99 27 18 6 2 0 2 5 19 13 3 1 0 0 0
0 0 0 0 0 0 0 0 0 0 0 0 0 0 0 0 5 12 16 18 14 19 20 23 30 19 98 79 51 18 6 0 10 2 12 37 31 5 0 0 0 0 3
0 0 0 0 0 0 0 0 0 0 0 0 0 0 4 14 17 12 19 22 22 42 48 45 53 77 121 32 42 47 69 10 26 62 54 51 10 2 0 0 0 7 21
56 27 0 0 0 0 0 0 0 0 0 0 0 0 11 26 26 31 30 31 30 32 53 84 49 22 3 5 24 29 11 44 32 42 30 10 4 0 0 1 13 29 21
107 107 63 33 2 0 0 0 0 0 0 0 1 8 18 23 35 35 35 41 121 200 194 67 43 4 16 29 30 44 52 34 16 5 2 0 0 0 5 4 1 2 9
193 171 140 115 47 7 0 0 0 0 0 0 4 3 23 28 27 157 214 208 151 80 67 80 65 50 35 43 37 18 1 0 0 0 0 0 0 0 0 0 0 3 3
341 312 273 198 107 12 0 0 0 0 0 0 0 14 23 182 251 143 93 55 47 45 25 26 23 24 11 0 0 0 0 0 0 0 0 0 0 0 0 0 3 0 0
252 228 203 186 136 37 0 0 0 0 0 2 15 96 116 99 83 55 50 61 39 53 1 0 0 0 0 0 0 0 0 0 0 0 0 0 0 0 0 1 1 0 1
212 178 145 92 10 0 0 0 0 4 14 23 34 38 51 38 32 51 13 9 0 0 0 0 0 0 0 0 0 0 0 0 0 0 0 0 0 0 0 0 0 0 0
190 69 32 11 0 0 4 1 0 2 27 31 45 48 35 26 24 25 0 0 0 0 0 0 0 0 0 0 0 0 0 0 0 0 0 0 0 0 0 0 0 0 0
68 41 23 42 51 53 72 74 47 59 51 29 3 1 2 8 0 0 0 0 0 0 0 0 0 0 0 0 0 0 0 0 0 0 0 0 0 0 0 0 0 0 0
59 49 55 39 7 0 12 2 0 0 3 0 0 0 0 0 0 0 0 0 0 0 0 0 0 0 0 0 0 0 0 0 0 0 0 0 0 0 0 0 0 0 0

GFSGL_con_mucape_003.txt.gz
CAPE
0 0 0 0 0 0 0 28 19 5 9 37 51 45 77 55 36 62 95 209 178 108 103 58 18 3 8 1 1 1 1 5 0 0 0 0 0 0 0 0 0 0 0
0 0 0 0 0 0 0 0 11 20 7 8 29 26 54 37 25 23 85 84 114 85 12 15 21 9 5 4 0 0 0 0 0 0 0 0 0 0 0 0 0 0 0
0 0 0 0 0 0 0 0 0 12 4 0 0 0 0 49 86 61 3 79 124 58 33 34 3 18 0 0 0 0 0 0 0 0 0 0 0 0 0 0 0 0 0
0 0 0 0 0 0 0 0 0 0 0 0 0 0 0 0 2 4 0 0 0 0 0 0 0 5 0 0 0 0 0 0 0 0 0 0 0 0 0 0 0 0 0
0 0 0 0 0 0 0 0 0 0 0 0 0 0 0 0 0 0 0 0 0 0 0 0 0 0 0 0 0 0 0 0 0 0 0 0 0 0 0 0 0 0 0
0 0 0 0 0 0 0 0 0 0 0 0 0 0 0 0 0 0 0 0 0 0 0 0 0 0 0 0 0 0 0 0 0 0 0 0 0 0 0 0 0 0 0
0 0 0 0 0 0 0 0 0 0 0 0 0 0 0 0 0 0 0 0 0 0 0 0 0 0 0 0 0 0 0 0 0 0 0 0 0 0 0 0 0 0 0
0 0 0 0 0 0 0 0 0 0 0 0 0 0 0 0 0 0 0 0 0 0 0 0 0 0 0 0 0 0 0 0 0 0 0 0 0 0 0 0 0 0 0
0 0 0 0 0 0 0 0 0 0 0 0 0 0 0 0 0 0 0 0 0 0 0 0 0 0 0 0 0 0 0 0 0 0 0 0 0 0 0 0 0 0 0
0 0 0 0 0 0 0 0 0 0 0 0 0 0 0 0 0 0 0 0 0 0 0 0 0 0 0 0 0 0 0 0 0 0 0 0 0 0 0 0 0 0 0
0 0 0 0 0 0 0 0 0 0 0 0 0 0 0 0 0 0 0 0 0 0 0 0 0 0 0 0 0 0 0 0 0 0 0 0 0 0 0 0 0 1 0
0 0 0 0 0 0 0 0 0 0 0 0 0 0 0 0 0 0 0 0 0 0 0 0 0 0 0 0 0 0 0 0 0 0 0 0 4 0 0 3 2 2 3
0 0 0 0 0 0 0 0 0 0 0 0 0 0 0 0 0 0 0 0 0 0 0 0 0 0 0 0 40 52 37 34 36 39 26 29 16 11 3 0 0 0 0
0 0 0 0 0 0 0 0 0 0 0 0 0 0 0 0 0 0 0 0 0 0 0 1 3 12 20 29 25 34 73 126 48 22 20 18 0 0 0 0 1 22 39
0 0 0 0 0 0 0 0 0 0 0 0 0 0 0 0 0 0 0 0 0 0 0 5 17 36 39 34 42 74 123 113 45 29 44 48 56 29 1 14 49 62 37
0 1 0 0 0 0 0 0 0 0 0 0 0 0 0 0 0 0 0 0 1 3 4 11 24 25 23 33 61 70 36 66 60 60 51 49 36 23 34 38 25 12 14
0 0 0 0 0 0 0 0 0 0 0 0 0 0 0 0 0 0 9 20 14 14 6 5 2 0 22 59 63 32 30 15 32 40 25 17 13 14 6 0 0 0 0
10 0 0 0 0 0 0 0 0 0 0 0 0 0 0 0 3 13 20 21 3 8 3 19 43 51 67 63 26 36 20 17 0 16 19 4 1 0 0 0 0 0 0
110 102 54 6 0 0 8 0 0 0 0 8 0 0 0 0 0 0 5 12 9 30 50 80 70 65 62 52 43 39 1 9 0 1 0 0 0 0 0 0 0 0 0
76 147 164 94 46 8 0 0 6 26 28 0 22 0 0 0 6 16 11 32 58 38 46 60 30 31 53 53 38 6 7 0 0 0 0 0 0 0 0 0 0 0 0
106 141 118 65 96 62 31 3 0 0 0 0 0 0 0 0 7 33 79 61 31 23 18 17 1 4 3 20 0 0 0 0 0 0 0 0 0 0 0 0 4 13 16
71 185 133 120 106 83 27 0 0 0 0 0 0 0 0 18 35 34 29 26 29 14 6 14 2 0 0 0 0 0 0 0 0 0 0 0 0 0 0 9 15 14 19
6 38 77 201 206 91 38 25 0 0 0 0 0 0 0 0 5 12 24 41 29 14 0 0 0 0 0 0 0 0 0 0 0 0 0 0 0 0 0 4 0 0 0
45 59 42 161 130 89 74 53 19 0 0 0 0 0 0 3 9 22 18 7 1 0 0 0 0 0 0 0 0 0 0 0 0 0 0 0 0 0 0 0 0 0 0
99 83 138 138 125 82 56 52 24 0 0 0 3 13 23 26 25 2 0 0 0 0 0 0 0 0 0 0 0 0 0 0 0 0 0 0 0 0 0 0 0 0 0
114 68 68 24 13 6 1 0 5 7 17 27 18 8 0 0 0 0 0 0 0 0 0 0 0 0 0 0 0 0 0 0 0 0 0 0 0 0 0 0 0 0 0

GFSGL_con_mucape_006.txt.gz
CAPE
0 0 0 0 0 1 28 71 90 24 60 67 23 4 45 225 315 775 574 151 162 79 129 38 22 29 25 23 16 18 5 5 0 0 0 0 0 0 0 0 0 0 0
0 0 0 0 0 0 9 48 96 163 89 123 81 24 5 11 30 130 482 217 383 247 226 116 3 30 65 83 2 18 1 0 0 0 0 0 0 0 0 6 6 5 0
0 0 0 0 0 0 0 5 12 46 89 135 38 41 19 20 27 27 66 189 281 304 320 299 220 242 205 127 82 0 0 0 0 0 0 0 0 0 3 0 0 0 0
0 0 0 0 0 0 0 0 1 0 6 21 23 29 92 24 0 108 486 517 382 328 262 238 253 240 229 234 40 0 0 0 0 0 0 0 0 0 0 0 0 0 0
0 0 0 0 0 0 0 0 0 0 0 0 0 0 0 1 0 0 0 9 24 20 27 19 22 19 4 21 0 0 0 0 0 0 0 0 0 0 0 0 0 0 0
0 0 0 0 0 0 0 0 0 0 0 0 0 0 0 0 0 0 0 0 0 0 0 0 0 0 0 0 0 0 0 0 0 0 0 0 0 0 0 0 0 0 0
0 0 0 0 0 0 0 0 0 0 0 0 0 0 0 0 0 0 0 2 0 0 0 0 0 0 0 0 0 0 0 0 0 0 2 0 0 0 0 0 0 0 0
0 0 0 0 0 0 0 0 0 9 10 0 0 0 0 0 0 0 0 0 0 0 0 0 0 0 0 0 0 0 0 0 0 0 1 11 0 0 0 0 0 0 0
0 0 0 0 0 0 0 0 0 0 7 0 0 0 0 0 0 0 0 0 0 0 0 0 0 0 0 0 0 0 0 0 0 0 0 0 0 0 0 0 0 0 0
0 0 0 0 0 0 0 0 0 0 0 0 0 0 0 0 0 0 0 0 0 0 0 0 0 0 0 0 0 0 0 0 0 0 0 0 0 0 0 0 1 10 8
0 0 0 0 0 0 0 0 0 0 0 0 0 0 0 0 0 0 0 0 0 0 0 0 0 0 0 0 0 0 0 0 0 1 4 7 14 16 14 28 25 6 1
0 0 0 0 0 0 0 0 0 0 0 0 0 0 0 0 0 0 0 0 0 0 0 0 0 0 0 0 0 0 12 33 38 32 30 21 18 11 10 19 2 0 0
0 0 0 0 0 0 0 0 0 0 0 0 0 0 0 0 0 0 0 0 0 0 0 0 0 0 0 0 6 1 0 1 11 31 50 37 13 1 4 3 0 3 12
0 0 0 0 0 0 0 0 0 0 0 0 0 0 0 0 0 0 0 0 0 0 0 0 0 0 0 1 0 2 5 7 12 3 18 23 14 4 8 27 18 17 13
22 2 3 0 0 0 0 0 0 15 0 0 0 0 0 0 0 0 0 0 0 0 0 0 0 0 0 3 7 10 6 24 6 18 23 36 35 38 44 11 0 0 0
273 56 9 0 0 0 0 0 0 0 0 0 0 0 0 0 0 0 0 0 0 0 0 0 0 1 3 3 12 19 10 18 38 36 15 13 6 1 5 1 0 0 0
438 215 5 0 0 0 0 0 0 0 0 0 0 0 0 0 0 0 0 0 0 0 2 2 1 0 0 1 14 39 44 33 29 24 33 21 12 3 0 0 0 0 0
461 1 14 4 0 0 0 0 0 0 0 0 0 0 0 0 0 0 0 0 0 0 3 8 12 22 49 58 42 35 49 42 32 44 35 9 1 0 0 0 0 0 0
261 8 85 4 0 0 0 0 0 0 0 0 0 0 0 0 0 0 0 0 26 10 4 8 34 48 38 25 24 21 21 9 5 11 0 0 0 0 0 0 0 0 0
96 0 0 1 0 0 0 0 0 0 0 0 104 64 0 0 0 0 0 26 19 3 23 31 38 29 20 10 1 2 1 0 0 0 0 0 0 0 0 0 0 2 1
57 81 31 58 50 34 9 7 0 0 0 0 0 26 0 7 0 0 0 4 14 38 40 26 23 23 9 6 0 0 0 0 0 0 0 0 0 0 0 1 2 6 13
56 64 49 6 1 15 24 20 4 1 0 25 0 0 0 0 0 0 0 0 12 12 7 36 36 21 20 0 0 0 0 0 0 0 0 0 0 0 0 6 9 0 5
11 31 42 21 14 16 11 15 16 28 90 1 0 0 0 0 0 0 0 0 7 17 18 20 10 0 0 0 0 0 0 0 0 0 0 0 0 0 1 5 0 0 7
14 7 9 1 5 32 31 19 58 51 40 0 0 0 0 0 0 0 0 0 0 0 0 3 0 0 0 0 0 0 0 0 0 0 0 0 0 0 0 0 0 0 0
57 76 10 1 15 27 49 79 70 53 42 5 0 0 0 0 0 0 0 0 6 0 0 0 0 0 0 0 0 0 0 0 0 0 0 0 0 0 0 0 0 0 0
79 45 36 29 16 24 31 60 74 55 38 11 0 0 0 0 6 32 18 0 0 0 0 0 0 0 0 0 0 0 0 0 0 0 0 0 0 0 0 0 0 0 0

GFSGL_con_mucape_009.txt.gz
CAPE
0 0 0 1 14 50 157 288 107 549 151 381 325 439 449 456 872 1091 847 635 258 161 61 45 44 48 32 34 37 27 10 6 8 37 31 81 144 10 0 3 0 0 0
0 0 0 0 2 16 132 273 319 244 186 62 193 332 278 362 380 649 590 176 77 108 31 28 23 17 11 18 15 9 44 57 2 21 48 8 0 19 0 17 0 0 0
0 0 0 0 1 0 9 15 275 365 323 95 67 46 99 323 437 606 126 306 276 189 25 25 18 17 0 11 15 5 136 103 19 0 0 2 2 4 0 20 54 66 7
0 0 0 0 0 4 0 0 6 58 203 265 247 117 18 60 293 501 545 591 282 133 134 117 156 28 86 372 270 114 81 33 59 0 0 2 0 4 9 2 0 0 0
0 0 0 0 0 5 4 5 0 0 0 2 72 111 11 88 271 680 670 805 764 626 518 280 420 174 225 291 190 97 37 14 0 0 0 0 0 0 0 1 2 2 3
0 0 0 0 0 0 2 5 0 0 0 0 0 0 0 0 0 0 73 285 299 164 75 64 37 48 14 0 0 0 0 387 99 1 0 0 100 6 0 0 0 0 0
0 0 0 0 0 0 0 0 0 2 0 0 0 0 0 0 0 0 0 30 85 165 126 19 0 0 0 0 0 0 0 0 0 60 11 77 346 276 318 440 233 167 40
0 0 0 0 0 0 0 0 24 12 17 0 0 0 0 0 0 0 0 195 292 39 1 0 0 0 0 0 0 0 0 0 0 0 36 291 237 330 618 463 636 482 226
0 0 0 0 0 0 0 0 77 150 195 2 0 0 0 0 0 0 0 54 0 0 0 0 0 0 0 0 0 0 0 0 0 0 0 0 0 0 0 2 0 0 0
0 0 0 0 0 0 0 44 112 76 44 0 0 0 0 0 0 0 0 0 0 0 0 0 0 0 0 0 0 0 0 0 0 0 0 0 0 0 0 0 1 3 3
0 0 0 0 0 0 176 213 90 2 18 0 0 0 0 0 0 0 0 0 0 0 0 0 0 0 0 0 0 0 0 0 0 0 8 13 11 12 9 12 11 6 7
0 0 0 0 0 0 104 61 0 98 23 0 0 0 0 0 0 0 0 0 0 0 0 0 0 0 0 0 0 0 0 0 0 0 0 0 4 12 7 0 0 0 7
0 0 0 0 0 0 16 14 0 26 0 0 0 0 0 0 0 0 0 0 0 0 0 0 0 0 0 0 0 0 0 0 2 2 0 0 2 8 17 15 16 25 36
6 8 31 8 0 0 1 0 0 0 0 0 0 0 0 0 0 0 0 0 0 0 0 0 0 0 0 0 0 0 0 0 6 4 18 10 2 13 21 10 8 2 4
354 139 193 4 5 41 20 0 0 8 0 0 0 0 0 0 0 0 0 0 0 0 0 0 0 0 0 0 0 1 2 0 0 3 1 8 14 25 26 16 7 2 0
591 195 20 0 4 0 0 0 0 0 0 0 0 0 0 0 0 0 0 0 0 0 0 0 0 0 6 11 28 67 13 8 3 7 21 36 32 22 25 9 0 0 0
670 471 25 0 0 0 0 0 0 0 0 0 0 0 0 0 0 0 0 0 0 0 0 0 17 43 27 40 56 45 25 36 30 16 5 2 13 8 0 0 0 0 0
871 56 122 75 6 0 0 0 0 0 0 0 0 0 0 0 0 0 0 0 0 0 0 12 46 36 67 47 17 43 47 30 13 6 0 0 0 0 0 0 0 0 0
1014 352 273 157 9 0 0 0 0 0 0 0 0 0 0 0 0 0 0 0 0 0 0 24 72 21 9 22 45 35 27 19 3 1 0 0 0 0 0 0 0 0 0
869 426 221 271 142 8 7 0 0 0 0 0 0 0 0 0 0 0 0 0 5 105 10 4 1 6 14 27 28 27 27 5 0 0 0 0 0 0 0 0 0 0 0
539 634 168 145 42 69 21 5 5 0 0 0 0 0 0 0 0 0 0 20 104 0 0 0 0 16 14 30 28 23 0 0 0 0 0 0 0 0 0 0 0 0 1
652 595 479 325 329 133 115 66 64 0 1 0 0 0 0 5 19 85 31 0 0 0 0 0 0 5 14 11 9 6 0 0 0 0 0 0 0 0 0 0 0 0 0
430 410 544 456 390 104 37 19 11 19 1 34 11 0 5 82 6 0 0 0 0 0 0 0 0 13 18 8 0 0 0 0 0 0 0 0 0 0 0 0 0 0 0
351 327 304 349 218 117 112 34 25 0 0 102 3 18 35 0 0 0 0 0 0 0 0 2 5 1 4 0 0 0 0 0 0 0 0 0 0 0 0 0 0 0 1
394 614 511 435 274 162 129 68 53 20 34 3 0 0 0 0 0 0 0 0 0 0 4 7 0 0 0 0 0 0 0 0 0 0 0 0 0 0 0 0 0 0 0
216 316 275 299 243 146 341 317 146 131 37 24 13 25 18 12 0 0 0 0 5 15 7 2 0 0 0 0 0 0 0 0 0 0 0 0 0 0 0 0 0 0 0

GFSGL_con_mucape_015.txt.gz
CAPE
0 0 0 1 68 107 85 56 92 106 123 178 218 284 266 308 231 267 122 99 199 87 16 41 47 52 47 34 16 10 21 44 8 11 50 64 79 56 43 29 43 10 0
0 0 0 5 73 99 99 24 42 102 162 165 274 260 255 198 130 151 99 42 38 63 29 29 25 29 27 4 14 25 39 57 33 30 63 70 70 63 25 1 0 0 0
0 0 0 0 0 23 116 4 28 74 129 179 206 199 235 148 134 136 106 55 31 25 26 32 16 10 11 16 23 12 43 32 31 23 40 29 17 0 0 0 0 0 0
0 0 0 0 0 0 92 52 24 25 43 85 130 154 136 155 134 123 101 40 9 9 31 32 26 18 18 15 23 15 12 14 23 0 19 2 0 0 0 0 0 0 0
0 0 0 0 0 0 4 58 63 44 40 31 73 147 225 133 134 79 68 40 15 25 13 43 46 48 32 18 6 1 3 2 0 0 0 0 0 0 0 0 0 0 0
0 0 0 0 1 7 0 0 22 23 13 21 83 114 110 85 111 61 42 20 26 22 25 9 23 38 9 4 0 0 26 0 0 0 0 0 0 0 0 0 0 0 0
0 0 0 0 0 0 0 0 0 0 0 0 0 75 140 142 94 86 69 54 60 33 21 7 8 14 6 8 0 6 0 0 0 0 0 0 0 0 0 0 0 0 0
0 0 0 0 0 0 0 0 0 0 0 0 2 6 20 95 105 73 73 53 56 54 16 27 12 3 4 3 5 0 0 0 0 0 0 1 0 0 0 0 6 6 4
0 0 0 0 0 0 0 0 0 0 0 0 0 0 0 0 0 0 0 0 0 2 1 5 7 0 0 0 0 0 0 0 0 0 1 0 0 0 3 0 4 9 0
0 0 0 0 0 0 0 0 0 0 0 0 0 0 0 0 0 5 0 0 0 0 0 0 0 0 0 0 0 0 0 0 0 0 0 0 0 0 0 0 0 0 0
0 0 0 0 0 0 0 0 11 19 0 0 0 0 0 0 0 0 0 0 0 0 0 0 0 0 0 0 0 0 0 0 0 0 0 0 0 0 0 0 0 0 0
0 0 0 0 0 0 14 48 33 106 8 4 0 0 0 0 0 0 0 0 0 0 0 0 0 0 0 0 0 0 0 0 0 0 0 0 0 0 0 0 0 1 0
0 0 0 0 0 2 0 54 41 51 122 0 0 0 0 0 0 0 0 0 0 0 0 0 0 0 0 0 0 0 0 0 0 0 0 0 0 3 10 2 0 0 4
0 0 0 0 0 1 2 20 21 10 1 5 0 0 0 0 0 0 0 0 0 0 0 0 0 0 0 0 0 0 0 0 0 0 0 6 23 26 10 0 0 0 1
0 0 0 0 0 0 0 1 0 0 0 0 0 0 0 0 0 0 0 0 0 0 0 0 0 0 0 0 0 0 0 0 0 1 14 23 32 27 10 0 0 0 0
0 0 0 0 0 0 0 0 0 0 0 0 0 0 0 0 0 0 0 0 0 0 0 0 0 0 0 0 0 0 0 0 4 18 29 42 36 17 1 0 0 0 0
0 0 0 0 0 0 0 0 0 0 0 0 0 0 0 0 0 0 0 0 0 0 0 0 0 0 0 0 0 0 13 15 20 41 72 55 38 14 0 0 0 0 0
0 0 5 0 0 0 0 0 0 0 0 0 0 0 0 0 0 0 0 0 0 0 0 0 0 0 0 0 9 22 29 42 61 79 60 52 34 12 0 0 0 0 0
93 0 13 25 7 0 0 0 0 0 0 0 0 0 0 0 0 0 0 0 0 0 0 0 0 0 0 2 19 32 58 74 81 48 65 33 17 0 0 0 0 0 0
447 200 44 19 5 20 0 0 0 0 0 0 0 0 0 0 0 0 0 0 0 0 0 0 0 0 0 6 48 74 70 65 55 51 36 30 1 0 0 0 0 0 0
491 388 238 134 114 65 38 0 0 0 0 0 0 0 0 0 0 0 0 0 0 0 0 0 0 0 0 22 54 63 71 52 42 50 33 0 0 0 0 0 0 0 0
467 451 391 340 265 196 121 94 20 0 0 0 0 0 0 0 0 0 0 0 0 0 0 0 0 0 2 17 21 42 63 42 52 31 0 0 0 0 0 0 0 0 0
470 497 509 469 434 389 295 135 94 54 0 0 0 0 0 0 0 0 0 0 0 0 0 0 0 0 6 21 40 68 79 45 24 1 0 0 0 0 0 0 0 0 0
637 498 579 595 527 467 378 255 181 109 7 0 0 4 14 2 0 0 0 0 0 0 3 0 0 3 16 34 74 75 50 25 3 0 0 0 0 0 0 0 0 0 0
627 519 427 512 549 508 450 377 265 186 30 3 2 1 0 0 0 0 0 0 0 0 0 3 0 3 19 69 39 30 12 1 0 0 0 0 0 0 0 0 0 0 0
454 358 404 466 531 606 548 449 376 274 202 60 15 0 0 0 0 0 0 0 0 0 2 0 3 7 15 3 3 4 5 0 0 0 0 0 0 0 0 0 0 0 0

GFSGL_con_mucape_021.txt.gz
CAPE
0 0 0 0 0 5 0 17 23 93 118 107 102 40 149 146 67 35 102 122 167 111 61 40 18 13 40 31 20 30 24 35 12 39 37 59 33 12 20 55 41 27 33
0 0 0 0 0 0 0 19 29 82 91 143 109 94 116 98 58 74 111 29 48 41 32 25 23 22 30 19 38 27 35 26 18 2 63 58 24 46 42 45 44 48 36
0 0 0 0 0 0 0 15 30 46 70 103 113 105 106 59 38 20 15 17 4 36 88 86 96 30 32 18 46 26 24 28 36 55 46 24 39 57 39 36 21 53 9
0 0 0 0 0 12 1 0 17 34 39 58 51 63 39 19 24 37 18 33 52 55 46 89 21 22 28 39 21 13 22 29 41 47 37 51 47 25 31 21 31 11 0
0 0 0 0 0 15 5 0 0 21 52 57 72 60 57 36 13 38 52 35 29 51 87 22 8 49 46 34 23 2 16 41 56 55 22 25 15 21 43 4 0 0 0
0 0 0 0 0 0 0 0 0 14 46 51 65 65 67 60 41 24 12 18 13 47 42 21 31 41 29 5 32 43 53 7 9 26 36 32 13 0 0 0 0 0 0
0 0 0 0 0 0 0 0 0 2 22 40 49 37 37 31 16 16 26 14 16 9 10 10 2 20 14 11 28 26 22 13 37 22 18 0 0 0 0 0 0 0 0
0 0 0 0 0 0 0 0 0 0 0 18 36 37 42 50 42 31 38 29 14 8 18 19 21 13 6 14 11 13 9 1 0 0 0 0 0 0 0 0 0 0 0
0 0 0 0 0 0 0 0 0 0 1 2 1 13 12 7 9 22 15 33 6 8 11 6 15 5 3 2 2 0 0 0 0 0 0 0 0 0 0 0 0 6 19
0 0 0 0 0 0 0 0 0 0 0 11 15 1 0 0 0 11 24 28 14 11 17 12 3 1 0 0 0 0 0 0 0 0 0 0 0 0 0 0 0 0 0
0 0 0 0 0 0 0 0 0 0 0 0 0 0 0 0 0 7 22 15 11 0 3 0 2 8 0 0 0 0 0 0 0 0 0 0 0 0 0 0 0 6 5
0 0 0 0 0 0 0 0 0 0 0 0 0 0 0 0 0 0 0 0 1 2 0 0 0 0 0 0 0 0 0 0 0 0 0 0 0 0 0 0 1 0 0
0 0 0 0 0 0 0 0 0 0 0 0 0 0 0 0 0 0 0 0 0 0 1 0 0 0 0 0 0 0 0 0 0 0 0 0 0 0 0 0 6 0 0
0 0 0 0 0 0 0 0 0 0 0 0 0 0 0 0 0 0 0 0 0 0 0 0 0 0 0 0 0 0 0 0 0 0 0 0 0 0 2 11 18 13 0
0 0 0 0 0 0 0 0 0 0 0 0 0 0 0 0 0 0 0 0 0 0 0 0 0 0 0 0 0 0 0 0 0 0 0 0 0 0 9 18 12 0 0
0 0 0 0 0 0 0 0 0 0 0 0 0 0 0 0 0 0 0 0 0 0 0 0 0 0 0 0 0 0 0 0 0 0 0 0 0 8 20 12 9 0 0
0 0 0 0 0 0 0 0 0 0 0 0 0 0 0 0 0 0 0 0 0 0 0 0 0 0 0 0 0 0 0 0 0 0 0 0 0 6 31 31 9 0 1
0 0 0 0 0 0 0 0 0 0 0 0 0 0 0 0 0 0 0 0 0 0 0 0 0 0 0 0 0 0 0 0 0 0 0 0 0 25 42 24 6 7 1
0 0 0 0 0 0 0 0 0 0 0 0 0 0 0 0 0 0 0 0 0 0 0 0 0 0 0 0 0 0 0 0 0 0 0 0 11 41 50 32 3 2 1
124 85 29 3 0 0 0 0 0 0 0 0 0 0 0 0 0 0 0 0 0 0 0 0 0 0 0 0 0 0 0 0 0 0 10 22 26 41 72 15 0 0 0
226 231 211 199 127 22 4 0 0 0 0 0 0 0 0 0 0 0 0 0 0 0 0 0 0 0 0 0 0 0 0 2 6 6 22 46 55 63 64 0 0 0 0
309 313 337 341 323 242 120 21 43 41 18 1 0 0 0 0 0 0 0 0 0 0 0 0 0 0 0 0 0 0 0 0 15 4 19 47 70 95 49 11 0 0 0
318 340 350 386 403 352 293 213 117 87 104 107 78 45 2 0 0 0 0 0 0 0 0 0 0 0 0 0 0 0 0 0 6 6 14 53 66 38 0 0 0 0 0
413 443 430 437 470 446 336 308 310 300 294 282 262 184 99 66 19 3 0 0 0 0 0 0 0 0 0 0 0 0 0 0 0 2 5 0 4 0 0 0 0 0 0
555 585 628 627 587 555 446 348 322 328 383 426 388 292 221 158 99 53 19 27 5 0 0 0 0 0 0 0 0 0 0 0 0 2 17 8 0 0 0 0 0 0 0
624 637 629 654 695 711 616 492 425 382 383 491 493 440 387 361 228 126 103 57 20 7 2 0 0 0 0 0 0 0 0 0 1 10 8 2 0 0 0 0 0 0 0

GFSGL_con_mucape_024.txt.gz
CAPE
0 0 0 0 0 0 0 4 34 57 39 60 20 34 68 54 12 1 10 15 11 13 21 25 36 63 50 37 27 45 28 27 16 69 28 25 21 14 8 13 5 30 18
0 0 0 0 0 0 0 12 26 33 57 34 0 9 33 41 34 18 10 83 25 135 8 33 43 56 28 31 21 33 16 28 38 42 14 14 25 21 27 26 37 34 33
0 0 0 0 0 0 0 12 16 15 45 41 8 5 19 85 142 203 35 23 16 11 4 5 13 30 23 21 37 32 20 5 17 30 0 28 15 29 46 49 41 40 6
0 0 0 0 0 0 0 14 17 0 8 18 22 26 10 67 36 6 1 0 1 13 10 17 13 27 28 14 31 24 22 23 19 14 36 21 15 53 40 30 34 49 4
0 0 0 0 0 0 0 8 22 21 21 5 13 1 0 6 0 5 9 13 33 25 12 31 13 16 26 29 22 23 31 20 28 38 3 0 29 41 29 15 18 2 0
0 0 0 0 0 0 0 0 14 32 26 36 21 26 20 7 20 3 0 4 6 26 25 6 8 47 27 25 10 52 19 13 45 6 1 40 35 25 29 23 5 0 0
0 0 0 0 0 0 0 0 0 9 37 27 23 28 25 15 23 6 2 3 21 100 8 24 32 8 9 12 9 20 18 30 47 38 32 30 17 15 0 3 0 0 0
0 0 0 0 0 0 0 0 0 0 7 19 29 35 40 16 14 29 8 11 17 9 8 8 20 7 4 10 19 18 8 8 13 8 49 16 5 0 0 0 0 0 0
0 0 0 0 0 0 0 0 0 0 0 1 5 17 17 12 55 35 24 5 22 6 8 13 10 0 5 13 10 2 0 0 0 0 0 0 0 0 0 0 0 0 0
0 0 0 0 0 0 0 0 0 0 0 0 0 0 4 6 8 30 7 9 13 7 10 8 5 1 6 5 0 0 0 0 0 0 0 0 0 0 0 0 0 0 0
0 0 0 0 0 0 0 0 0 0 0 0 0 0 0 3 6 21 15 15 11 6 7 0 0 0 12 10 0 0 0 0 0 0 0 0 0 0 0 0 0 0 0
0 0 0 0 0 0 0 0 0 0 0 0 0 0 0 0 0 1 8 15 9 1 0 0 0 6 6 0 0 0 0 0 0 0 0 0 0 0 0 0 0 0 0
0 0 0 0 0 0 0 0 0 0 0 0 0 0 0 0 0 0 0 0 0 0 0 0 0 0 0 0 0 0 0 0 0 0 0 0 0 0 0 0 0 5 13
0 0 0 0 0 0 0 0 0 0 0 0 0 0 0 0 0 0 0 0 0 0 0 0 0 0 0 0 0 0 0 0 0 0 0 0 0 0 0 0 0 7 4
0 0 0 0 0 0 0 0 0 0 0 0 0 0 0 0 0 0 0 0 0 0 0 0 0 0 0 0 0 0 0 0 0 0 0 0 0 0 0 0 10 22 4
0 0 0 0 0 0 0 0 0 0 0 0 0 0 0 0 0 0 0 0 0 0 0 0 0 0 0 0 0 0 0 0 0 0 0 0 0 0 0 4 32 27 9
0 0 0 0 0 0 0 0 0 0 0 0 0 0 0 0 0 0 0 0 0 0 0 0 0 0 0 0 0 0 0 0 0 0 0 0 0 0 0 0 22 27 10
0 0 0 0 0 0 0 0 0 0 0 0 0 0 0 0 0 0 0 0 0 0 0 0 0 0 0 0 0 0 0 0 0 0 0 0 0 0 0 0 25 26 26
0 0 0 0 0 0 0 0 0 0 0 0 0 0 0 0 0 0 0 0 0 0 0 0 0 0 0 0 0 0 0 0 0 0 0 0 0 0 1 19 33 39 21
0 0 0 0 0 0 0 0 0 0 0 0 0 0 0 0 0 0 0 0 0 0 0 0 0 0 0 0 0 0 0 0 0 0 0 0 0 4 23 40 53 51 19
0 0 0 0 0 0 0 0 0 0 0 0 0 0 0 0 0 0 0 0 0 0 0 0 0 0 0 0 0 0 0 0 0 0 0 0 7 34 58 66 62 66 12
0 1 32 24 8 10 3 0 0 0 0 0 0 0 0 0 0 0 0 0 0 0 0 0 0 0 0 0 0 0 0 0 0 0 0 0 11 34 32 40 51 27 19
77 164 139 119 133 133 148 113 43 0 0 2 0 0 0 0 0 0 0 0 0 0 0 0 0 0 0 0 0 0 0 0 0 2 0 2 16 25 5 0 7 5 5
244 221 226 219 191 207 226 234 200 116 32 3 0 11 13 7 1 0 0 0 0 0 0 0 0 0 0 0 0 0 0 0 0 0 0 3 0 3 0 11 0 0 0
290 261 244 268 268 273 300 291 250 210 200 188 161 114 72 61 62 55 42 32 13 0 0 0 0 0 0 0 0 0 0 0 0 0 0 1 0 13 0 1 0 0 0
323 331 346 374 434 471 476 428 379 297 257 237 260 302 291 248 175 106 70 68 44 30 16 0 0 0 0 0 0 0 0 0 0 0 0 0 4 2 0 0 0 0 0

GFSGL_con_mucape_027.txt.gz
CAPE
141 54 145 220 98 42 243 165 429 629 561 499 470 539 512 372 344 407 421 296 304 96 67 157 120 189 275 205 152 90 70 80 64 46 16 4 5 2 3 13 26 20 21
68 7 179 171 42 94 253 248 455 553 413 428 338 416 73 41 92 161 46 66 53 58 58 88 90 103 216 136 267 211 132 53 48 6 43 29 10 12 10 10 28 13 24
0 15 180 169 60 115 316 361 421 513 372 285 249 1 10 18 12 7 3 2 5 16 57 96 115 225 269 154 79 122 102 119 12 5 0 22 6 18 9 9 14 33 29
0 11 125 121 82 44 255 339 362 413 370 167 64 14 23 14 29 3 79 290 43 25 49 112 108 197 137 56 26 72 56 34 19 16 1 10 2 15 12 17 31 3 8
0 11 15 9 58 64 194 280 318 309 279 238 111 27 18 53 8 3 28 16 28 33 42 70 90 38 25 94 33 104 105 10 16 7 11 4 0 38 5 29 29 10 2
0 0 0 21 51 95 148 335 423 283 64 198 109 46 66 0 0 0 2 14 23 14 25 0 3 10 15 17 32 21 24 20 0 2 0 7 0 29 14 34 23 8 4
0 0 0 4 21 45 38 124 283 216 266 53 208 97 13 14 8 0 0 26 64 23 3 3 31 17 25 16 31 17 21 30 16 13 9 8 23 23 83 51 13 0 4
0 0 0 0 37 16 10 0 4 47 93 81 42 57 19 4 0 0 0 20 28 32 22 14 16 3 7 15 4 16 42 32 29 35 87 60 124 75 130 141 0 0 0
0 0 0 0 35 0 0 0 0 32 176 63 64 30 40 23 2 1 0 1 24 7 9 3 1 59 2 9 7 2 11 16 26 28 38 43 42 5 0 0 0 0 0
0 0 0 0 2 0 0 0 0 13 37 71 40 12 29 39 2 4 1 6 12 8 0 4 1 19 15 4 6 18 8 0 3 0 0 0 0 0 0 30 13 45 0
0 0 0 1 0 13 0 0 0 0 5 9 9 4 7 12 4 4 9 30 41 81 35 48 4 8 13 3 0 55 4 0 0 0 0 0 0 0 0 0 15 35 0
0 0 0 11 0 0 0 0 0 40 64 21 3 1 0 6 12 3 1 4 9 52 46 26 8 0 2 0 0 0 0 0 0 0 0 0 0 0 0 0 0 0 0
0 0 0 0 0 0 0 0 0 4 24 0 0 0 0 0 0 1 0 0 0 55 50 5 0 0 0 0 0 0 0 0 0 0 0 0 0 0 0 0 0 0 0
0 0 0 0 0 0 0 0 0 0 0 0 0 0 0 0 0 0 0 0 0 0 0 0 0 0 0 0 0 0 0 0 0 0 0 0 0 0 0 0 0 0 2
0 0 0 0 0 0 0 0 0 0 0 0 0 0 0 0 0 0 0 0 0 0 0 0 0 0 0 0 0 0 0 0 0 0 0 0 0 0 0 0 0 0 14
0 0 0 0 0 0 0 0 0 0 0 0 0 0 0 0 0 0 0 0 0 0 3 0 0 0 0 0 0 0 0 0 0 0 0 0 0 0 0 0 0 0 23
0 0 0 0 0 0 0 0 0 0 0 0 0 0 0 0 0 0 0 0 0 0 0 0 0 0 0 0 0 0 0 0 0 0 0 0 0 0 0 0 0 0 31
0 0 0 0 0 0 0 0 0 0 0 0 0 0 0 0 0 0 0 0 0 0 0 0 0 0 0 0 0 0 0 0 0 0 0 0 0 0 0 0 0 0 22
0 0 0 0 0 0 0 0 0 0 0 0 0 0 0 0 0 0 0 0 0 0 0 0 0 0 0 0 0 0 0 0 0 0 0 0 0 0 0 0 0 4 28
0 0 0 0 0 0 0 0 0 0 0 0 0 0 0 0 0 0 0 0 0 0 0 0 0 0 0 0 0 0 0 0 0 0 0 0 0 0 0 0 0 13 51
0 0 0 0 0 0 0 0 0 0 0 0 0 0 0 0 0 0 0 0 0 0 0 0 0 0 0 0 0 0 0 0 0 0 0 0 0 0 0 0 0 33 44
0 0 0 0 0 0 0 0 0 0 0 0 0 0 0 0 0 0 0 0 0 0 0 0 0 0 0 0 0 0 0 0 0 0 0 0 0 0 0 0 0 17 5
0 0 0 0 0 0 0 0 0 0 0 0 0 0 0 0 0 0 0 0 0 0 0 0 0 0 0 0 0 0 0 0 0 0 0 0 0 0 0 0 0 8 26
0 3 0 3 0 21 15 0 0 0 0 0 0 0 0 0 0 0 0 0 0 0 0 0 0 0 0 0 0 0 0 0 0 0 0 0 0 0 0 0 0 1 38
113 106 40 15 55 77 66 73 80 90 77 47 2 0 0 0 0 0 0 0 0 0 0 0 0 0 0 0 0 0 0 0 0 0 0 0 0 0 0 0 0 0 0
98 131 93 86 165 146 131 131 140 135 127 129 89 45 6 2 5 16 22 29 37 25 5 8 7 1 0 2 0 0 0 0 0 0 0 0 0 0 1 3 0 0 0

GFSGL_con_mucape_030.txt.gz
CAPE
405 354 463 551 400 373 542 446 755 824 663 483 571 604 619 693 724 768 707 714 707 811 821 815 628 853 628 232 339 502 308 477 124 57 16 31 13 22 9 21 43 7 14
225 143 353 504 310 451 503 519 591 681 598 391 452 512 429 516 660 633 436 410 522 550 294 287 429 452 410 384 735 313 194 30 2 0 2 7 14 31 20 18 11 17 9
13 48 342 460 353 502 544 636 615 702 518 335 408 495 550 476 472 399 350 326 299 151 226 395 286 296 274 416 464 268 284 81 26 2 11 16 19 18 14 31 29 14 32
0 9 209 369 362 502 558 521 631 614 529 286 306 250 273 241 173 75 163 184 71 221 369 421 411 401 446 64 356 200 220 8 16 3 7 2 6 11 17 23 10 40 2
0 6 141 358 407 431 565 523 447 500 469 293 135 83 151 46 48 138 67 97 202 381 350 288 355 252 100 79 350 268 82 7 3 2 0 0 0 5 0 18 2 4 22
0 3 40 272 333 532 647 571 524 340 388 343 145 90 72 42 1 9 77 55 38 122 259 125 169 19 27 12 65 76 28 15 1 3 0 0 0 4 2 8 11 0 6
0 0 75 249 256 472 518 555 538 433 76 382 303 148 58 26 0 0 7 117 102 241 144 93 59 19 18 9 2 2 23 3 2 1 1 17 2 21 29 46 60 51 13
0 0 131 149 98 418 459 644 764 353 111 35 26 4 12 34 6 0 56 256 111 69 56 32 76 4 10 6 30 2 0 12 24 4 7 24 55 169 148 41 209 294 53
0 0 11 94 64 200 47 278 795 910 563 311 194 78 7 5 2 0 52 126 42 26 117 35 9 11 0 1 9 0 11 14 19 24 10 51 67 72 193 94 39 16 6
0 0 0 3 65 50 19 275 779 808 545 562 146 14 4 0 1 2 3 47 55 24 134 11 1 2 2 5 21 15 81 62 51 34 29 38 33 45 35 134 74 62 69
0 0 0 90 44 79 58 635 815 639 487 312 217 121 22 3 1 4 6 11 13 25 55 96 1 2 1 4 36 90 57 79 35 78 65 62 0 0 13 186 127 218 78
0 0 0 149 1 67 38 695 742 653 589 373 395 236 41 13 2 3 5 35 6 7 38 96 7 2 2 1 8 1 6 10 7 0 0 0 0 17 36 63 34 19 11
0 0 0 6 63 28 33 453 758 824 461 199 442 434 324 150 16 0 0 17 25 91 93 33 0 0 0 0 0 0 0 0 8 14 21 16 0 0 0 0 0 0 0
0 0 0 2 110 167 3 10 258 448 260 2 2 392 388 297 118 18 0 5 11 23 3 0 0 0 0 0 0 0 0 0 0 2 0 0 0 0 0 0 0 0 0
12 35 13 0 11 264 156 0 0 79 19 0 0 0 42 337 293 58 66 158 175 56 20 0 16 1 0 0 0 0 0 0 0 0 0 0 0 0 0 0 0 0 0
43 58 30 0 6 9 180 77 0 0 0 0 0 0 0 0 0 0 2 15 19 0 29 142 211 34 0 0 0 0 0 0 0 0 0 0 0 0 0 0 0 0 0
81 80 3 0 0 0 0 110 51 0 0 0 0 0 0 0 0 0 0 0 0 0 198 295 152 0 0 0 0 0 0 0 0 0 0 0 0 0 0 0 0 0 0
90 0 3 0 0 0 0 0 0 0 0 0 0 0 0 0 0 0 0 0 0 0 0 0 0 0 0 0 0 0 0 0 0 0 0 0 0 0 0 0 0 0 0
131 0 0 0 0 0 0 0 0 0 0 0 0 0 0 0 0 0 0 0 0 0 0 0 0 0 0 0 0 0 0 0 0 0 0 0 0 0 0 0 0 0 0
162 0 0 0 0 0 0 0 0 0 0 0 0 0 0 0 0 0 0 0 0 0 0 0 0 0 0 0 0 0 0 0 0 0 0 0 0 0 0 0 0 0 0
200 13 0 0 0 0 0 0 0 0 0 0 0 0 0 0 0 0 0 0 0 0 0 0 0 0 0 0 0 0 0 0 0 0 0 0 0 0 0 0 0 0 0
178 91 0 0 0 0 0 0 0 0 0 0 0 0 0 0 0 0 0 0 0 0 0 0 0 0 0 0 0 0 0 0 0 0 0 0 0 0 0 0 0 0 0
147 116 1 0 0 0 0 0 0 0 0 0 0 0 0 0 0 0 0 0 0 0 0 0 0 0 0 0 0 0 0 0 0 0 0 0 0 0 0 0 0 0 0
145 137 28 0 0 0 0 0 0 0 0 0 0 0 0 0 0 0 0 0 0 0 0 0 0 0 0 0 0 0 0 0 0 0 0 0 0 0 0 0 0 0 0
163 151 127 48 18 0 1 0 2 0 0 0 0 0 0 0 0 0 0 0 0 0 0 0 0 0 0 0 0 0 0 0 0 0 0 0 0 0 0 0 0 0 0
71 126 149 126 72 54 13 36 23 21 13 10 7 2 2 1 1 0 0 0 0 0 0 0 0 0 1 4 11 4 0 0 0 0 0 0 0 0 0 0 0 0 0

GFSGL_con_mucape_033.txt.gz
CAPE
352 310 580 919 488 512 692 637 789 735 378 453 584 636 573 596 686 1025 896 722 709 875 648 788 495 293 1015 383 640 681 585 635 317 200 95 19 26 5 10 4 3 32 53
244 208 315 852 266 609 462 740 720 690 390 253 763 261 331 505 709 693 615 630 623 555 729 541 432 594 644 827 918 606 288 467 33 18 19 18 12 15 2 4 22 13 43
99 52 290 445 663 675 597 602 662 613 286 231 617 389 282 339 478 412 364 417 501 240 286 552 279 487 407 152 96 98 113 50 10 10 7 2 11 3 9 8 16 32 10
8 66 266 837 539 680 533 579 801 632 457 189 520 291 356 349 275 246 374 319 192 290 477 531 252 321 54 133 100 46 4 1 0 0 0 0 16 26 7 22 14 11 2
9 53 315 750 624 676 403 512 654 584 266 200 166 342 231 206 98 405 279 106 173 379 468 343 304 172 116 89 143 50 1 5 0 0 3 0 0 6 0 2 1 21 10
29 72 301 633 309 713 604 601 620 604 458 235 240 477 130 121 1 1 58 177 258 321 411 433 119 29 15 30 68 45 9 0 3 3 0 0 0 7 10 2 5 0 1
31 173 289 530 367 698 519 454 304 565 555 536 312 168 361 12 1 2 17 231 211 346 240 262 185 32 88 34 20 10 10 2 4 2 2 1 0 9 6 10 17 49 70
34 151 375 293 327 560 654 685 628 261 262 57 41 150 263 1 0 11 79 240 304 243 169 130 40 36 39 52 21 16 0 1 3 3 5 2 11 10 15 21 3 220 49
26 106 333 223 505 604 542 855 980 573 691 517 106 2 87 0 2 32 118 233 253 215 145 55 2 1 1 19 19 10 0 5 5 4 10 12 29 29 26 17 144 59 1
13 6 221 234 202 318 344 964 1109 844 748 485 168 28 0 41 0 13 23 61 233 36 38 10 2 0 14 35 8 8 9 5 1 10 43 43 52 21 20 171 161 59 12
1 0 92 174 253 388 297 1167 982 690 685 449 48 0 2 47 4 0 4 143 108 159 46 29 8 0 10 4 12 216 55 21 11 87 138 83 94 51 59 181 186 420 188
3 0 36 193 131 334 372 1092 1131 908 617 534 88 14 2 3 2 1 1 41 41 93 6 25 2 6 5 5 25 29 47 47 197 164 203 199 193 250 120 224 444 150 44
0 2 24 288 87 172 326 884 862 881 252 779 698 84 65 36 0 0 8 4 13 112 122 5 0 1 0 0 0 42 67 178 160 216 18 1 0 19 74 54 27 22 27
1 35 32 326 99 105 64 482 581 399 21 366 553 484 160 92 36 50 8 1 1 19 14 0 0 0 0 0 0 0 0 1 0 0 3 4 35 0 0 0 0 5 0
36 50 62 162 268 157 56 78 187 334 29 2 503 591 430 287 64 12 72 87 128 53 17 0 0 0 0 0 0 0 12 1 0 0 0 0 0 0 0 0 0 0 0
226 43 38 37 117 388 109 0 0 4 0 0 0 50 221 218 46 0 0 38 77 3 35 41 14 0 0 0 0 0 0 0 20 20 0 0 0 0 0 0 0 0 0
537 452 17 0 49 137 342 210 0 0 0 0 0 0 0 81 54 11 27 35 20 0 161 220 100 7 0 0 0 0 0 0 40 0 0 0 0 0 0 0 0 0 0
382 1 131 0 0 0 138 262 144 1 0 0 0 0 0 0 0 0 6 23 24 8 128 306 151 32 0 0 0 0 0 15 0 0 0 0 0 0 0 0 0 0 0
337 17 75 0 0 0 0 4 87 51 0 0 0 0 0 0 0 0 0 0 4 36 94 155 48 27 0 0 0 0 13 8 9 10 4 0 1 0 0 0 0 0 0
276 0 9 0 0 0 0 0 0 0 0 0 0 0 0 0 0 0 0 0 0 0 0 0 0 0 0 0 0 0 0 0 4 43 0 0 0 0 0 0 0 0 0
113 13 0 0 0 0 0 0 0 0 0 0 0 0 0 0 0 0 0 0 0 0 0 0 0 0 0 0 0 0 0 0 0 0 0 0 0 0 0 0 0 0 0
493 297 4 0 0 0 0 0 0 0 0 0 0 0 0 0 0 0 0 0 0 0 0 0 0 0 0 0 0 0 0 0 0 0 0 0 0 0 0 0 0 0 0
427 444 243 69 0 0 0 0 0 0 0 0 0 0 0 0 0 0 0 0 0 0 0 0 0 0 0 0 0 0 0 0 0 0 0 0 0 0 0 0 0 0 1
530 527 495 290 95 11 0 0 0 0 0 0 0 0 0 0 0 0 0 0 0 0 0 0 0 0 0 0 0 0 0 0 0 0 0 0 0 0 0 0 0 0 0
490 729 849 858 411 310 105 12 42 0 0 0 0 0 0 2 1 1 1 0 0 0 0 4 1 0 0 0 0 0 0 0 0 0 0 0 0 0 0 0 0 0 0
313 527 839 922 767 599 457 381 345 251 25 10 1 11 8 0 0 95 131 53 17 1 36 110 175 61 15 4 0 0 0 0 0 0 0 0 0 0 0 0 0 0 28

GFSGL_con_mucape_036.txt.gz
CAPE
911 1113 942 1190 686 1017 1126 1081 1147 1030 695 827 863 865 639 613 746 761 521 614 419 428 154 167 151 96 452 719 600 210 289 331 105 144 84 7 15 11 36 69 33 3 6
660 735 854 619 889 982 1115 1021 1169 1049 654 545 406 264 664 723 661 615 786 409 484 243 171 81 148 155 98 245 272 239 147 127 49 3 8 23 19 48 46 20 6 7 18
355 633 705 1046 893 1039 867 987 972 812 623 263 325 333 401 656 609 619 326 527 328 270 246 248 171 146 128 98 81 94 98 53 31 0 9 10 12 18 2 13 24 34 46
224 453 1054 1096 1074 913 976 1040 1029 660 556 226 136 387 179 235 375 340 510 357 239 236 281 109 114 128 65 46 23 22 14 32 37 10 2 24 6 1 13 8 0 27 14
156 772 1139 1242 886 941 649 704 727 701 585 104 372 453 538 305 74 285 269 189 291 232 164 130 55 49 34 24 19 10 7 4 3 1 0 0 0 2 0 6 0 0 11
304 806 876 774 504 909 648 791 817 665 455 221 242 179 378 34 0 4 59 106 168 240 132 46 40 28 48 22 21 18 5 2 0 0 0 0 0 0 6 1 7 0 0
251 708 653 641 634 746 602 612 693 675 537 212 164 169 65 0 0 2 43 401 294 219 171 180 55 22 30 24 17 2 1 4 5 1 0 1 0 1 0 8 5 9 0
235 484 453 473 602 675 752 775 703 807 392 163 192 391 4 0 1 3 30 298 200 104 108 87 63 24 53 35 8 8 2 5 4 2 3 1 5 11 12 1 0 17 0
210 445 627 543 590 732 748 1056 582 600 428 135 66 59 1 0 0 30 143 231 80 64 11 1 34 7 2 10 14 1 9 5 17 9 3 5 6 2 0 0 1 0 0
132 385 366 658 786 558 995 807 1043 739 480 56 30 41 5 0 3 27 39 128 7 1 3 0 0 2 9 7 21 3 6 4 6 9 6 6 4 0 0 0 0 0 0
69 306 387 594 1068 1052 1102 998 1082 714 380 93 26 0 80 8 4 0 25 112 13 0 4 2 6 13 0 4 3 8 3 0 10 2 4 4 3 0 0 1 33 9 0
53 120 445 760 446 679 1049 1137 947 821 395 5 3 0 16 10 0 0 20 52 34 17 14 14 10 16 8 9 10 14 5 2 3 32 28 23 5 0 0 1 21 7 4
94 242 538 530 636 684 1039 1082 975 695 407 12 9 24 20 10 0 0 12 25 26 25 15 0 0 0 1 26 4 2 0 11 19 29 21 13 2 0 9 1 3 0 12
291 372 605 472 465 443 1008 1033 729 885 678 345 60 53 18 11 0 0 0 8 0 0 0 0 0 0 0 0 5 5 27 44 33 11 7 0 0 3 3 5 63 33 34
439 331 599 429 396 359 601 524 612 146 510 777 454 156 97 53 12 0 0 0 0 0 0 0 0 0 0 0 1 6 7 16 16 0 0 0 0 0 0 0 2 0 0
419 358 299 396 420 141 44 77 99 94 0 598 486 283 193 85 36 0 2 0 10 0 0 0 0 0 0 0 0 0 1 0 3 0 0 0 0 0 0 0 0 0 0
304 332 149 278 343 269 116 20 0 21 13 0 22 341 195 98 0 19 9 16 72 0 45 9 0 0 0 0 0 0 0 0 0 1 0 0 0 0 0 0 0 0 0
344 104 191 84 159 423 397 130 0 9 5 0 0 0 40 174 175 6 46 60 78 18 45 150 123 9 0 0 0 0 0 1 0 0 2 0 0 0 0 0 0 0 0
283 157 114 2 116 22 366 424 151 0 0 13 0 0 2 39 3 0 2 93 53 30 6 112 284 187 6 0 0 0 0 0 0 0 0 0 0 0 0 0 0 0 0
394 143 31 59 1 7 27 136 223 127 1 0 0 0 0 0 0 0 0 36 159 145 121 69 119 107 110 0 0 0 0 0 0 0 0 0 0 0 0 0 0 0 0
345 88 0 76 0 0 0 0 0 29 63 0 0 0 0 0 0 0 0 0 0 0 0 0 7 0 0 0 0 0 0 0 0 0 0 0 0 0 0 0 0 0 0
206 186 0 0 27 0 0 0 0 0 0 0 0 0 0 0 0 0 0 0 0 0 0 0 0 0 0 0 0 0 0 0 0 0 0 0 0 0 0 0 0 0 0
400 312 70 0 0 0 0 0 0 0 0 0 0 0 0 0 0 0 0 0 0 0 0 0 0 0 0 0 0 0 0 0 0 0 0 0 0 0 0 0 0 0 0
397 603 499 168 96 18 32 0 0 0 0 0 0 0 0 0 0 0 0 0 0 0 0 0 0 0 0 0 0 0 0 0 0 0 0 0 0 0 0 0 0 0 0
668 659 875 464 313 275 131 42 0 0 0 0 0 0 0 0 0 0 0 0 0 0 0 0 0 0 0 0 0 0 0 0 0 0 0 0 0 0 0 0 0 0 0
577 978 762 979 671 410 324 344 97 0 0 0 0 0 0 0 0 0 0 0 0 0 0 0 0 0 0 0 0 0 0 0 0 0 0 0 0 0 0 0 6 5 39

GFSGL_con_mucape_042.txt.gz
CAPE
175 95 86 91 134 29 127 197 159 178 124 38 52 122 25 114 46 24 24 0 17 31 28 24 29 66 165 62 17 68 75 88 83 270 394 291 205 241 24 7 47 52 56
131 64 93 132 61 69 291 231 0 0 7 101 186 90 0 21 183 34 38 0 3 44 15 11 13 91 87 109 77 94 92 105 48 123 105 77 154 28 0 10 43 7 8
74 76 112 151 108 138 144 226 0 4 11 93 41 120 112 110 173 123 70 25 45 37 47 37 16 55 69 101 86 82 93 64 55 78 94 103 97 1 1 9 13 29 15
66 88 73 75 41 127 129 122 146 74 107 40 30 125 107 96 107 80 42 13 35 34 52 41 37 31 41 40 33 56 52 62 95 51 28 9 0 5 14 4 19 7 1
72 79 56 71 3 4 28 24 130 66 111 44 37 98 108 104 70 50 16 65 30 23 49 46 32 33 25 25 38 24 36 23 35 8 0 7 7 5 14 5 1 0 5
52 151 108 29 17 0 0 21 28 33 53 47 60 23 21 12 11 0 38 96 63 12 15 23 22 18 30 27 31 13 14 10 2 0 0 1 3 7 3 2 1 3 0
128 188 135 31 59 4 9 24 17 40 39 36 16 0 0 0 0 39 20 45 30 35 27 31 18 41 22 17 8 23 35 16 24 8 0 0 12 1 0 3 3 2 0
193 315 238 146 34 47 24 33 32 28 38 47 20 11 0 0 0 38 30 33 22 31 13 10 18 10 8 6 12 18 8 8 31 16 1 11 2 1 8 5 1 4 7
211 341 234 145 122 140 73 31 21 11 5 34 31 5 0 0 6 27 9 31 29 10 5 1 5 11 2 0 2 1 2 4 6 8 23 6 11 13 3 0 0 11 4
176 204 200 186 157 109 63 11 22 35 63 70 44 4 0 4 45 27 11 9 47 13 16 7 0 0 3 2 2 0 0 7 15 4 7 9 10 6 5 6 19 11 0
205 215 258 275 258 221 151 0 25 45 43 61 14 14 0 3 43 17 8 0 0 0 8 6 2 0 1 1 8 1 0 1 0 8 10 8 5 6 4 0 0 0 0
257 236 283 272 342 249 204 64 45 22 25 14 13 0 2 3 8 6 0 0 0 0 1 2 0 6 13 8 11 15 4 0 6 1 7 10 9 1 0 0 0 0 0
186 275 318 301 405 214 220 67 15 3 1 1 0 0 0 0 4 8 0 0 2 13 20 16 7 5 13 13 18 15 4 4 0 0 0 1 0 0 0 0 0 0 2
183 310 243 395 293 224 231 119 6 10 2 1 5 0 0 0 0 0 0 0 0 4 4 2 6 13 9 4 0 5 4 1 0 0 0 0 0 0 0 0 0 0 0
233 333 306 343 228 218 254 216 84 9 73 0 0 0 0 0 0 0 0 0 0 0 0 1 0 0 3 0 0 0 0 0 0 0 0 0 0 0 0 0 0 0 0
183 268 272 251 239 276 329 338 200 143 230 87 0 0 0 0 0 0 0 0 0 0 0 0 5 8 5 2 0 0 0 0 0 0 0 0 0 0 0 0 0 0 0
57 124 189 156 240 302 314 302 354 374 336 290 4 0 0 0 0 0 0 0 0 0 0 0 0 0 1 0 0 0 0 0 0 0 0 0 0 0 0 0 0 3 14
5 66 81 101 187 250 354 379 240 41 146 310 108 1 0 0 0 0 0 0 0 0 0 0 0 0 0 0 0 0 0 0 0 0 0 0 0 0 0 0 0 8 4
2 10 37 45 34 79 117 91 79 67 329 370 240 71 1 0 0 0 0 0 0 0 0 0 0 0 0 0 0 0 0 0 0 0 0 0 0 0 0 0 0 0 0
0 0 6 13 10 0 1 0 0 2 168 387 369 155 126 115 5 0 0 0 0 0 0 0 0 0 0 0 0 0 0 0 0 0 0 0 0 0 0 0 0 0 0
0 0 0 2 0 4 5 2 0 0 0 274 303 202 143 115 85 97 4 0 21 37 21 0 0 0 0 2 0 0 0 0 0 0 0 0 0 0 0 0 0 0 0
427 0 0 0 13 9 29 40 80 59 14 15 12 12 176 124 77 43 26 9 0 1 25 57 13 0 22 85 110 106 121 13 0 0 0 0 0 0 0 0 0 0 0
679 351 0 0 0 0 0 16 94 160 107 74 85 63 20 0 3 5 3 0 0 0 7 26 38 30 4 5 61 86 88 19 5 0 0 0 0 0 0 0 0 0 0
613 510 362 199 88 45 4 0 0 0 16 75 49 26 0 0 0 0 0 0 0 0 0 0 0 0 0 0 0 0 26 25 0 0 0 0 0 0 0 0 0 0 0
550 444 408 358 238 185 152 160 16 0 0 0 0 0 0 0 0 0 0 0 0 0 0 0 0 0 0 0 0 0 0 0 20 0 0 0 0 0 0 0 0 0 0
445 517 479 315 241 168 136 179 193 195 41 25 64 61 29 0 0 0 0 0 0 0 0 0 0 0 0 0 0 0 0 0 0 0 0 0 0 0 0 0 0 0 0

GFSGL_con_mucape_045.txt.gz
CAPE
244 191 48 156 146 95 50 80 54 46 0 0 2 0 2 0 0 0 0 13 14 40 54 58 74 60 33 28 37 53 19 33 63 106 151 97 117 139 59 229 152 100 102
69 8 39 74 62 9 86 73 13 18 10 0 1 47 20 0 11 43 12 0 17 30 19 27 29 84 100 99 27 46 49 50 72 76 79 97 117 32 25 80 47 81 55
9 26 38 32 25 59 101 15 0 0 0 18 56 47 5 8 73 57 45 7 10 37 20 25 30 40 61 89 66 42 63 48 75 65 77 130 60 22 18 16 71 6 43
35 46 43 56 44 38 20 57 0 0 2 16 9 59 55 73 74 37 40 33 33 26 46 37 35 36 68 63 58 41 54 22 12 91 41 42 34 0 0 16 23 3 12
33 35 38 55 37 37 14 4 1 10 24 39 48 79 40 42 55 53 47 19 9 39 41 25 28 38 35 38 45 41 24 0 4 28 0 3 1 0 7 5 26 4 16
43 24 25 41 30 6 1 0 0 9 41 35 31 41 47 26 14 5 7 9 0 20 38 23 8 25 28 32 28 28 17 1 65 0 0 0 1 2 1 6 9 1 0
74 30 64 53 26 0 1 0 0 6 39 22 37 18 12 0 0 8 13 51 36 31 31 25 30 32 17 12 13 16 28 9 17 19 1 1 0 1 10 2 4 0 0
49 79 90 64 54 4 0 0 0 3 20 17 27 4 0 0 1 22 19 18 13 10 26 32 43 18 15 17 12 5 12 6 16 34 15 0 1 0 5 10 1 11 2
90 124 123 102 76 36 4 0 24 26 32 35 36 11 0 0 0 6 20 18 19 4 22 40 14 14 9 15 12 13 11 14 35 30 3 4 3 6 5 1 85 7 79
111 179 186 147 96 101 5 18 35 32 28 10 15 1 0 0 15 28 19 29 75 7 6 0 1 3 0 6 17 9 7 10 30 2 12 9 0 3 2 5 5 25 18
111 195 194 149 103 111 40 33 30 31 34 15 27 1 0 3 29 35 19 10 6 47 5 0 1 0 0 0 2 1 0 2 1 0 11 15 11 7 3 14 2 32 15
112 157 148 129 113 105 74 7 16 31 19 21 13 0 7 21 10 7 11 4 2 2 40 4 8 7 0 0 0 4 0 1 0 1 1 2 0 2 8 4 1 0 0
113 159 169 200 192 204 106 0 19 22 13 9 1 0 1 1 5 11 2 0 0 1 39 8 8 18 11 5 0 0 0 0 1 12 10 5 4 0 0 0 0 0 0
128 207 212 203 263 225 153 34 36 8 0 0 0 0 1 0 0 3 0 8 23 25 26 12 9 4 1 10 4 2 1 0 4 12 7 4 0 0 0 0 0 0 0
57 221 262 226 281 141 147 63 12 14 6 0 3 0 0 0 0 0 0 0 6 11 9 2 2 0 0 8 1 0 0 0 0 0 0 0 0 0 0 0 0 0 0
69 201 293 182 263 118 127 69 55 17 103 0 0 0 0 0 0 0 0 0 0 0 0 15 12 25 7 0 1 0 0 0 0 0 0 0 0 0 0 0 0 0 0
68 199 292 175 255 98 102 90 127 85 187 190 0 0 0 0 0 0 0 0 0 0 0 1 0 0 0 1 0 0 0 0 0 0 0 0 0 0 0 0 0 0 0
39 169 268 249 204 74 97 122 134 149 237 183 78 0 0 0 0 0 0 0 0 0 0 0 0 0 0 0 0 0 0 0 0 0 0 0 0 0 0 0 0 0 0
1 87 171 182 167 92 99 99 171 235 34 196 163 21 0 0 0 0 0 0 0 0 0 0 0 0 0 0 0 0 0 0 0 0 0 0 0 0 0 0 0 0 0
0 5 63 85 104 85 62 131 175 75 40 254 208 54 0 0 0 0 0 0 0 0 0 0 0 0 0 0 0 0 0 0 0 0 0 0 0 0 0 0 0 0 0
0 0 8 33 42 35 25 10 18 6 9 158 242 158 44 1 0 0 0 0 0 0 0 0 0 0 0 0 0 0 0 0 0 0 0 0 0 0 0 0 0 0 0
173 0 0 2 12 16 12 3 0 0 0 0 50 232 149 68 49 10 0 0 0 0 0 0 0 0 0 0 0 0 0 0 0 0 0 0 0 0 0 0 0 0 0
468 63 0 0 0 2 3 3 3 3 0 4 5 27 117 94 49 39 9 1 0 0 0 0 0 0 0 0 0 0 3 17 9 0 15 4 0 0 0 0 0 0 0
733 417 191 10 0 0 0 0 0 1 5 8 34 39 21 18 23 23 17 13 8 0 0 0 0 0 0 0 0 0 0 1 11 29 42 56 7 1 0 0 0 0 0
812 605 395 250 135 83 62 87 112 119 1 7 21 22 41 45 13 1 0 0 0 0 0 0 0 0 0 0 0 0 0 0 0 0 0 0 10 10 0 0 0 0 0
607 633 554 467 312 209 154 138 134 167 190 140 0 0 0 15 4 2 0 0 0 0 0 0 0 0 0 0 0 0 0 0 0 0 0 0 0 8 13 1 0 0 0

GFSGL_con_mucape_048.txt.gz
CAPE
192 162 123 73 45 53 44 44 32 0 0 0 0 0 0 0 0 0 0 0 13 53 62 74 85 87 78 86 33 46 1 56 51 66 55 63 26 165 372 609 469 323 252
152 110 38 29 38 22 1 1 0 0 0 0 0 0 0 2 0 0 0 0 4 39 41 43 45 58 42 34 18 27 9 94 64 65 58 69 56 54 60 127 205 238 201
127 0 6 20 6 0 20 0 0 0 0 0 0 0 0 0 8 18 0 18 1 27 20 19 20 11 33 52 35 20 30 47 22 51 25 99 18 35 38 28 73 102 94
0 0 0 5 1 11 29 0 0 0 0 0 7 12 3 0 30 37 37 18 11 28 39 17 29 15 45 42 42 26 36 32 21 49 84 51 3 5 15 32 29 26 43
0 0 0 2 16 19 3 0 0 0 0 13 9 12 17 24 25 25 9 10 21 38 35 32 33 42 53 45 34 23 24 33 21 46 5 1 0 0 6 1 15 18 32
0 0 0 22 25 20 1 0 0 0 15 45 35 27 27 30 21 0 0 0 3 31 28 36 25 26 35 31 33 18 27 32 0 3 0 0 0 4 3 5 7 17 1
0 0 7 23 31 12 2 0 0 0 23 34 30 25 19 18 0 0 23 43 16 31 35 36 36 15 12 17 30 23 0 0 0 4 0 0 0 0 0 3 2 0 2
20 4 17 27 18 25 12 0 0 2 27 26 24 10 2 0 0 0 0 18 12 16 45 55 40 8 12 6 18 18 6 1 0 0 0 0 0 0 4 10 5 7 3
48 19 37 44 41 25 9 0 0 9 29 31 22 6 0 0 0 5 24 10 10 5 5 22 16 22 15 9 5 11 18 0 2 9 3 0 0 0 2 12 8 8 2
33 32 37 49 80 47 21 0 19 28 44 43 28 2 0 0 1 13 40 48 7 7 0 13 6 2 4 14 8 23 8 10 4 6 1 3 10 17 29 2 15 0 5
27 42 74 78 93 68 23 19 26 38 45 36 3 0 0 4 32 33 36 29 10 28 2 4 0 0 0 9 19 29 13 8 22 3 1 7 6 8 3 7 11 13 10
26 64 138 111 93 90 48 22 14 26 36 19 8 0 1 4 16 18 17 7 12 11 7 3 1 5 0 2 15 17 18 23 5 2 1 0 1 0 1 10 5 12 8
14 104 132 107 75 86 70 14 6 22 20 6 1 0 0 20 19 17 8 1 0 0 6 9 10 12 0 0 0 7 3 4 0 0 0 0 0 0 1 1 2 0 0
31 94 121 99 104 151 107 16 6 28 29 8 0 4 0 0 7 38 8 12 17 13 7 0 13 2 0 0 0 0 0 0 0 0 0 0 0 0 0 0 0 0 0
22 69 134 171 155 229 122 48 55 17 13 9 0 0 0 0 0 2 4 16 31 23 27 13 4 2 0 0 0 0 0 0 0 0 0 0 0 0 0 0 0 0 0
15 58 158 195 196 231 92 25 0 7 14 9 11 0 0 0 0 0 0 1 14 18 5 28 0 0 3 0 0 0 0 0 1 0 0 0 0 0 0 0 0 0 0
1 33 158 233 198 220 53 19 0 0 13 4 0 0 0 0 0 0 0 0 0 0 1 14 12 1 4 0 0 0 0 0 0 0 0 0 0 0 0 0 0 0 0
0 11 122 245 228 224 55 24 18 11 48 90 4 0 0 0 0 4 1 0 0 0 0 5 3 8 1 0 0 0 0 0 0 0 0 0 0 0 0 0 0 0 0
0 5 85 232 232 234 77 29 44 45 122 56 96 0 0 0 0 0 4 0 0 0 0 0 1 2 0 1 0 0 0 0 0 0 0 0 0 1 1 0 0 0 0
0 0 43 144 210 223 94 37 44 101 109 0 143 27 0 0 0 0 0 0 0 0 0 0 0 0 0 0 0 0 2 3 0 0 0 0 0 0 0 0 0 0 0
0 0 12 62 149 161 109 49 14 116 61 0 160 74 0 0 0 0 0 0 0 0 0 0 0 0 0 0 0 0 0 0 0 0 0 0 0 0 0 0 0 0 0
209 0 0 10 29 63 88 58 10 12 6 5 41 125 79 8 1 0 0 0 0 0 0 0 0 0 0 0 0 0 0 0 0 0 0 0 0 0 0 0 0 0 0
523 246 2 0 1 7 16 20 9 0 0 0 0 5 45 99 34 11 3 0 0 0 0 0 0 0 0 0 0 0 0 0 0 0 0 0 0 0 0 0 0 0 0
540 398 140 11 6 0 0 0 0 0 0 0 0 0 0 0 21 29 13 11 4 0 0 0 0 0 0 0 0 0 0 0 0 0 0 0 0 0 1 12 22 25 11
725 500 358 122 14 2 0 0 0 0 0 0 0 0 0 2 5 4 1 0 0 0 0 0 0 0 0 0 0 0 0 0 0 0 0 0 0 0 0 9 37 46 27
346 439 470 302 172 64 23 17 31 54 61 27 0 0 0 0 0 0 0 0 0 0 0 0 0 0 0 0 0 0 0 0 0 0 0 0 0 0 0 0 0 5 3